STARLINK-32616, 61920

Orbit data source: Space-Track

STARLINK-32616, 61920 is a payload satellite owned by SpaceX/Seattle (US) in LEO that was launched on Mon, 11 Nov 2024 UTC via an FALCON 9 launch vehicle from the Air Force Eastern Test Range (AFETR). Payload-class satellites include a variety of spacecraft equipped with specific instruments for various scientific and technological missions. These include communications satellites like Starlink; space stations such as the ISS; scientific satellites like the Hubble; Earth observation satellites from companies like Planet Labs, Umbra, and HawkEye 360; GPS; miniature CubeSats for education and research; and military/defense satellites.

Loading next visibility...
Identifier
61920, 2024-207J
Orbit
LEO
Last TLE update
14 hours ago
Origin
Manufacturer
SpaceX/Seattle
Mission
Operational Commercial Communications
Bus & Motor
STARLINK V2M, Unknown motor
Mass
730 kg wet, ~700 kg dry
Launch date (UTC)
2024-11-11 (8 months ago)
Launch vehicle
FALCON 9
Launch site
Air Force Eastern Test Range (AFETR)
Object type
Payload
Rocket body
Debris
Shape & HBR
Box + 2 Pan, 29 m
Radar Cross Section
36.964 m², Large (>1 m²)

Expand to show TLE details & history

TLE from 14 hours ago
0 STARLINK-32616
1 61920U 24207J   25186.21632377  .00021386  00000-0  78404-3 0  9992
2 61920  42.9987 239.3885 0001349 252.0761 107.9943 15.27595191 36879
Epoch: 2025-07-05T05:11Z
TLE epoch observation values (Epoch: 2025-07-05T05:11:30.373Z)
Latitude
-0.00007°
Longitude
-121.94568°
Altitude
483.065 km
Speed
7.626 km/s
True Right ascension
15h 57m 33s
True Declination
0° 00' 00"
Sunlit
Object was in full shadow at epoch
Visualization orbit readout
Latitude
35.56619°
Longitude
-75.63792°
Altitude
485.372 km
Speed
7.627 km/s
Apparent Right ascension
19h 15m 24s
Apparent Declination
0° 32' 38"
Sunlit
Object is in full shadow
Visualization observer readout
Local Sidereal Time
07:29:49
Azimuth
5.668° NNE
Elevation
-50.491°
Doppler factor
1
Orbital elements
Apogee altitude
485.875 km
Perigee altitude
484.023 km
Semi-major axis
6,863.086 km
Eccentricity
0.00013
Inclination
42.9987°
RAAN
239.3885°
Arg. of periapsis
252.0761°
True anomaly
Unknown
Mean anomaly
107.9943°
Eccentric anomaly
Unknown
Mean motion
3.81737 °/min
Orbital period
94.31 mins
BSTAR
0.00078404
Loading maneuver chart data...
Loading SW <> Apogee altitude chart data...
Loading historical data...
Loading historical data...
Loading historical data...
Loading historical data...
Loading historical data...
Loading historical data...
Loading historical data...

STARLINK-32616 Visibility forecast

Observer location: undefined°, undefined°

Span
Click to sort rows by Start time (UTC) header in descending order
Start Az.
Max El. time (UTC)
Max El. Az.
Max El.
End time (UTC)
End Az.
5 mins2025-07-06 06:30:06.138Z207.174° SW2025-07-06 06:33:06.138Z136.46° SSE27.401°2025-07-06 06:35:06.138Z93.734° ESE
6 mins2025-07-06 08:09:06.138Z262.694° W2025-07-06 08:11:06.138Z293.882° NW41.972°2025-07-06 08:15:06.138Z70.706° E
6 mins2025-07-06 09:48:06.138Z290.55° WNW2025-07-06 09:51:06.138Z28.478° NE37.188°2025-07-06 09:54:06.138Z80.158° E
6 mins2025-07-06 11:27:06.138Z285.705° WNW2025-07-06 11:30:06.138Z147.098° SSE43.408°2025-07-06 11:33:06.138Z115.156° SE
|